Theta_e
308 308 307 307 307 307 307 307 307 307 307 308 308 308 308 308 308 308 308 308 307 307 307 307 307 306 307 308 311 313 314 314 313 314 316 317 314 316 318 318 318 316 315 313 314 319 316 314 314 314 316 317 318 319 319 321 330 333 328 322 324 328 329 332 335 326 319 323 326 322 318 317 320 319 314 312 314 316 315 316 318 315 313 310 309 310 310 311
308 308 307 307 307 307 306 306 306 306 307 307 307 307 308 308 308 308 308 308 307 307 306 307 306 307 307 308 311 313 314 315 316 317 317 316 315 316 318 319 317 315 315 312 315 318 317 318 314 315 320 320 319 318 320 321 323 331 332 325 326 331 329 330 332 326 319 318 322 323 319 315 318 319 314 314 319 317 315 316 316 316 315 312 308 308 309 309
308 308 308 307 307 307 307 306 306 306 306 307 307 307 307 307 307 308 308 308 308 307 307 307 306 307 307 308 311 313 315 317 321 323 319 318 318 317 318 319 317 315 314 312 315 316 317 318 313 316 321 319 321 321 323 322 321 331 331 326 331 332 327 327 326 322 319 317 320 322 318 315 317 316 314 315 319 318 317 316 315 317 317 317 313 306 307 307
309 309 308 308 308 308 308 307 307 306 306 306 306 307 307 307 307 307 308 308 308 308 307 307 307 307 307 309 312 313 315 316 318 322 318 317 319 318 318 319 317 314 313 313 316 318 317 315 312 316 319 319 323 323 325 325 322 326 324 326 332 326 323 325 323 321 321 317 318 321 317 316 317 314 315 317 317 317 316 315 315 318 316 317 316 308 305 306
310 310 309 309 309 308 308 308 308 307 307 306 306 307 307 307 307 307 307 307 308 308 307 307 307 307 306 310 313 314 315 314 313 320 318 315 317 318 320 319 316 314 312 313 316 317 315 313 313 317 318 320 322 322 328 328 323 323 322 324 326 321 320 322 323 322 320 317 317 319 317 317 316 314 315 316 316 316 316 316 314 316 316 316 316 308 304 305
311 311 310 310 309 309 309 309 309 308 308 307 307 307 307 307 307 307 307 307 307 307 307 307 307 307 307 310 313 315 314 312 314 318 317 316 315 316 319 318 314 312 311 314 316 314 315 315 315 319 319 319 321 320 324 323 320 322 323 322 321 319 318 319 322 321 319 317 316 317 317 316 316 316 317 316 316 315 316 319 317 315 313 311 311 308 306 307
312 312 311 310 310 310 310 310 309 309 309 308 308 308 308 308 308 308 308 308 307 307 307 307 307 307 308 310 315 320 319 316 316 315 315 315 315 316 317 315 312 310 311 314 314 314 318 317 317 321 321 320 322 321 319 318 319 322 323 322 321 319 319 319 318 319 319 317 317 316 314 315 317 316 316 315 315 314 314 317 318 314 308 308 311 311 310 308
312 313 312 311 310 310 310 310 310 310 309 309 309 309 309 309 309 308 308 308 308 308 307 307 308 307 308 313 318 324 323 319 314 314 316 316 315 316 315 314 311 310 312 312 313 315 317 317 318 319 319 320 320 320 318 316 320 323 323 322 321 319 319 319 317 317 318 317 315 314 314 315 316 315 314 315 315 314 313 314 316 313 310 311 313 312 310 308
313 314 313 311 311 311 311 310 310 310 309 309 309 309 309 309 309 308 308 308 308 308 308 307 308 308 309 313 316 319 320 317 315 318 318 317 316 315 314 313 310 310 311 312 313 313 315 318 320 318 319 321 318 318 319 318 321 323 322 321 318 317 318 316 316 316 316 316 314 314 316 315 314 314 313 314 314 313 314 314 314 313 314 314 312 311 309 309
314 315 313 313 313 312 312 312 311 310 309 309 309 308 308 308 308 307 307 307 307 308 309 308 307 309 311 313 314 316 316 316 318 320 319 317 315 313 313 312 311 311 311 312 312 312 315 318 319 318 318 318 317 317 318 318 319 319 318 318 316 316 316 315 315 315 313 315 316 315 316 315 313 313 314 315 314 313 314 315 313 312 312 311 311 310 308 308
316 316 314 314 314 314 314 312 311 310 309 309 309 309 308 308 307 306 306 305 306 307 308 309 307 309 312 315 316 315 314 316 317 318 319 317 315 313 312 311 311 311 311 312 312 312 313 314 315 316 316 316 316 316 317 317 316 315 315 317 317 315 315 315 314 315 313 315 316 315 315 315 313 312 314 315 315 314 315 315 313 312 311 310 309 309 308 307
317 316 315 315 315 315 314 312 311 310 310 309 310 310 310 309 308 307 307 306 306 307 308 309 307 308 312 316 317 314 313 315 315 316 316 316 315 313 312 312 312 311 311 311 312 313 313 313 314 316 317 316 315 316 316 315 314 314 314 316 317 315 315 315 314 314 314 315 316 315 315 315 314 314 315 313 314 313 313 315 313 312 311 310 309 308 308 306
316 315 315 315 315 315 312 311 310 310 310 310 310 311 310 310 310 309 308 307 306 307 308 308 309 309 312 317 316 313 313 314 314 314 315 315 314 313 312 311 313 313 313 311 312 314 314 314 314 316 318 316 317 316 313 313 314 315 314 315 315 315 316 316 315 316 314 314 316 315 315 316 316 315 315 314 313 312 313 314 313 311 310 309 309 308 308 306
315 314 315 315 315 313 311 311 310 310 310 310 310 310 310 310 310 310 309 308 307 307 308 309 310 311 314 318 314 312 314 314 314 315 315 315 313 313 313 312 313 314 313 312 312 314 315 314 314 314 314 315 317 314 314 318 318 315 314 315 316 315 317 316 315 316 315 314 315 315 315 316 316 316 316 314 312 312 314 314 312 311 310 309 309 308 308 307
315 314 315 316 314 312 311 311 310 310 310 310 309 309 310 310 310 310 309 309 308 307 308 310 312 314 317 318 313 313 315 314 315 315 315 314 314 313 313 313 313 313 312 312 312 313 313 313 313 314 314 314 313 314 320 323 322 319 314 316 319 317 316 314 314 315 315 314 312 314 317 316 315 315 316 314 312 313 314 314 312 311 310 309 308 308 308 307
315 315 315 315 313 312 312 311 310 310 309 309 309 309 309 309 309 309 310 310 308 308 309 311 313 314 316 316 313 314 314 314 316 315 315 314 313 314 313 313 312 312 312 312 312 312 312 313 312 315 316 314 314 319 322 321 323 323 316 316 319 317 315 315 316 316 314 314 312 313 317 317 316 316 315 313 313 313 313 313 311 310 310 309 308 308 308 308
315 315 315 314 313 312 312 311 310 309 308 308 308 308 308 309 310 311 311 310 309 311 312 313 314 313 313 313 313 314 313 313 315 315 315 314 313 314 313 312 312 312 312 311 312 312 312 313 312 314 316 315 318 321 319 317 319 319 316 317 318 316 314 315 318 318 314 314 314 313 313 315 316 317 316 314 314 313 312 313 311 310 309 308 309 308 308 308
315 316 315 314 313 313 313 312 310 308 308 308 307 308 310 311 312 312 312 312 311 311 314 316 314 313 314 314 314 315 314 314 314 314 314 313 313 314 314 313 311 311 312 312 312 312 313 315 316 317 318 316 316 317 316 317 315 314 316 318 319 317 314 315 316 315 314 313 315 314 312 313 313 314 314 313 313 312 312 312 311 310 309 309 309 309 309 308
315 315 315 314 315 315 315 313 310 309 308 307 308 311 313 314 315 314 312 315 316 313 314 315 315 316 316 316 315 315 315 315 315 315 313 313 314 314 313 312 312 313 314 314 314 314 315 318 319 318 317 315 314 314 314 314 313 313 314 317 319 317 314 314 313 313 315 314 314 314 313 312 312 312 313 312 312 312 311 311 310 309 309 309 309 310 310 310
315 315 315 316 316 316 317 314 311 313 311 308 309 311 317 320 318 317 317 318 318 315 317 317 316 318 316 315 316 315 316 316 316 315 313 313 314 314 313 313 314 315 315 318 319 316 315 317 319 317 315 314 313 314 313 313 313 313 313 315 316 314 312 313 312 313 314 313 313 314 313 313 313 312 312 312 312 313 312 311 311 310 310 310 310 310 310 310
315 315 315 316 316 317 318 316 314 316 314 309 308 312 317 316 313 316 318 318 312 309 315 315 312 315 314 313 315 316 317 316 315 315 313 312 313 314 314 314 316 316 316 320 321 315 313 315 317 316 314 313 314 314 313 313 313 313 314 314 314 313 313 312 312 313 312 312 313 314 314 313 312 312 312 313 313 313 313 312 312 311 310 310 310 310 311 311
314 315 315 316 316 317 317 317 316 316 315 310 308 310 309 308 309 310 309 314 313 306 309 311 309 311 311 311 313 314 316 315 314 315 313 311 312 314 314 314 317 317 316 317 317 315 315 315 314 313 313 313 313 315 314 313 313 314 314 314 314 313 313 312 313 314 312 313 315 315 314 312 312 312 311 312 312 312 313 313 312 312 311 311 310 311 310 311
315 314 315 316 316 316 316 317 317 316 315 310 307 307 306 305 307 307 307 314 317 312 311 311 309 309 309 310 311 312 314 313 314 316 313 311 311 314 313 314 315 316 316 316 315 316 318 318 315 312 313 313 313 314 314 313 313 314 314 314 314 313 313 314 315 317 314 312 316 316 313 311 311 312 312 311 312 312 312 312 312 312 312 312 311 312 311 312
316 315 316 316 315 316 316 317 317 316 314 312 308 307 306 305 305 307 311 315 317 315 314 311 308 309 310 309 309 312 313 312 313 314 312 311 312 312 313 313 314 314 316 315 315 314 315 318 318 314 313 313 314 314 314 314 314 314 315 314 314 314 314 313 313 315 314 312 315 314 312 313 313 313 312 311 311 311 311 311 311 311 311 312 312 312 313 313
316 316 316 316 316 316 315 317 318 316 314 312 310 309 307 305 305 306 309 315 317 317 314 310 309 310 310 309 311 313 312 312 314 314 311 310 311 312 312 312 312 313 314 314 315 313 312 316 317 315 316 316 315 314 316 318 315 313 316 315 314 313 313 313 313 313 314 315 315 316 315 315 316 317 315 313 313 313 313 312 312 312 312 312 312 312 312 312
318 317 317 316 317 315 316 319 318 317 316 313 311 309 306 305 306 305 308 315 319 319 316 312 312 312 310 311 312 313 313 312 312 311 310 310 311 312 312 311 311 312 314 314 313 312 312 315 315 316 319 319 316 316 318 318 314 313 319 320 315 313 314 314 314 314 317 318 316 317 318 316 317 317 317 316 316 316 315 313 313 312 312 312 312 312 312 312
321 319 317 317 317 316 318 320 317 318 319 316 311 307 306 307 305 304 310 320 324 320 317 314 312 312 312 311 310 312 316 314 310 309 310 310 311 311 312 312 311 311 313 314 313 312 313 313 315 316 317 319 318 317 317 317 314 314 320 324 321 317 317 317 316 317 320 317 316 319 319 318 316 316 318 318 316 316 315 314 313 312 311 311 311 311 311 311
324 322 319 318 317 316 316 317 316 317 319 317 310 306 306 307 305 308 315 325 327 321 317 315 311 311 313 311 309 311 312 311 312 311 307 307 310 311 312 312 312 313 313 313 312 314 315 314 316 316 315 317 317 315 317 316 314 316 319 321 322 320 319 318 317 321 321 317 317 319 318 319 317 316 319 316 314 316 314 314 313 312 312 311 311 311 311 311
325 324 322 320 318 318 317 316 317 317 318 316 309 307 307 305 305 313 322 325 324 319 316 313 309 311 313 312 312 313 310 309 311 310 306 308 309 310 312 312 311 313 314 313 312 312 314 315 316 317 316 315 314 315 320 317 314 318 318 319 325 328 326 322 318 319 321 319 319 320 317 317 317 316 317 313 313 315 313 313 313 311 313 312 311 311 311 311
324 323 324 322 320 319 318 317 317 318 318 314 309 308 309 308 308 316 325 323 321 318 313 311 310 311 314 314 315 314 311 310 310 309 309 309 309 310 311 309 310 315 315 313 314 312 311 311 313 316 316 315 315 317 318 318 317 317 316 317 327 330 327 328 326 320 319 319 320 322 319 316 316 318 318 315 315 315 312 312 313 312 312 311 311 311 311 311
323 322 323 323 321 320 319 318 319 319 318 313 310 310 311 314 316 322 326 322 319 318 312 312 313 312 315 317 318 315 312 312 311 310 311 310 311 312 310 309 312 318 319 314 313 313 310 310 313 318 319 318 316 315 314 316 316 316 318 319 322 325 325 328 327 320 317 318 320 323 320 316 316 316 317 316 316 316 314 314 315 315 315 313 313 312 311 310
323 321 322 322 321 320 319 319 319 318 318 315 313 313 315 320 322 323 324 322 323 322 314 315 315 314 315 314 317 318 314 313 312 311 314 314 314 314 312 314 315 317 321 318 316 316 314 312 312 314 317 318 316 316 318 318 315 315 320 320 318 321 322 322 322 321 320 320 321 321 317 314 315 316 316 316 316 316 315 314 315 317 318 316 314 313 312 312
323 321 321 322 321 320 319 320 319 318 317 316 317 319 322 325 326 325 323 323 326 323 316 317 317 316 316 313 320 321 313 314 313 310 313 314 313 315 314 315 316 315 317 318 317 319 319 317 313 311 313 316 315 315 317 318 317 316 318 320 319 320 320 319 322 323 320 320 321 318 315 316 318 320 319 315 315 317 315 314 315 314 315 315 313 312 313 316
323 322 321 321 321 320 320 319 318 317 317 317 319 323 324 327 329 326 323 322 323 321 320 321 319 317 316 316 324 322 313 316 316 310 312 312 311 316 317 313 312 313 314 315 316 318 318 317 315 313 315 317 314 313 313 316 319 316 316 320 319 321 324 323 323 321 317 321 322 315 317 323 321 319 321 319 318 320 317 316 315 314 314 314 313 312 312 317
322 322 321 320 320 319 319 319 318 317 316 317 318 321 324 327 328 327 327 325 324 324 324 323 321 320 321 323 325 321 314 317 317 313 314 314 314 319 322 317 311 310 313 313 317 320 317 318 318 314 315 316 314 313 312 313 318 317 317 318 315 317 322 319 319 320 316 319 321 316 321 328 320 314 317 320 319 319 317 316 315 315 315 313 313 313 312 318
321 321 320 319 319 319 319 318 318 316 316 317 319 320 322 326 328 328 328 324 321 322 325 326 324 324 328 328 326 321 316 315 317 316 316 316 317 319 321 320 313 309 311 313 318 320 315 318 322 315 315 317 316 314 311 312 317 315 316 318 315 316 318 315 317 319 315 315 317 316 319 322 318 314 317 319 320 319 316 314 312 312 313 312 313 314 313 320
320 320 320 318 319 320 319 318 317 316 316 318 321 321 321 323 325 327 325 321 318 319 324 328 326 326 329 329 327 324 322 323 320 317 320 321 320 319 319 319 315 310 310 312 316 319 315 315 317 316 316 316 314 313 313 315 316 316 318 318 315 316 316 316 318 317 316 317 316 315 316 316 315 319 323 322 321 320 316 314 313 312 312 313 314 316 319 323
319 319 319 319 319 319 320 318 316 315 315 318 321 322 322 323 323 322 321 320 319 319 322 326 326 327 328 328 329 326 324 327 324 321 325 325 321 321 318 317 315 311 310 310 313 317 316 313 315 317 318 315 313 313 314 314 313 316 319 317 317 319 319 318 319 317 316 317 317 316 317 314 314 321 323 317 318 319 316 316 316 314 313 315 315 319 324 321
318 319 319 318 318 319 320 317 315 314 316 318 320 322 322 322 321 321 321 321 321 321 323 325 325 326 327 327 328 326 323 324 324 322 325 324 323 322 319 316 315 314 313 312 314 316 315 314 315 317 317 315 313 314 318 318 313 312 313 314 316 319 319 319 319 318 317 317 318 318 317 316 319 326 323 314 315 316 315 317 319 316 316 317 318 323 328 326
315 317 318 317 317 319 318 315 314 315 317 319 320 320 320 320 321 322 321 320 320 321 324 325 325 325 326 326 325 325 323 323 323 323 324 325 324 322 319 317 316 316 316 314 315 316 316 317 316 316 317 315 314 317 322 322 317 314 314 314 313 314 317 318 316 316 318 317 317 319 318 318 320 324 320 314 315 315 313 315 318 319 319 316 318 325 332 336
314 316 318 316 316 317 315 313 315 316 318 319 320 319 318 318 320 320 319 318 318 320 322 323 325 325 324 325 324 323 323 323 323 323 323 323 322 321 321 318 316 318 319 318 319 318 317 318 317 316 318 316 315 319 320 318 317 317 315 315 315 314 316 318 316 317 318 316 317 318 318 320 320 318 315 314 315 313 313 314 314 318 321 317 316 323 331 337
314 316 317 315 315 314 313 315 316 316 318 319 319 318 317 317 318 318 318 317 318 319 320 320 323 323 322 322 323 323 323 324 323 322 321 321 320 319 320 319 318 319 319 319 323 321 317 317 317 316 316 317 317 318 317 315 315 315 315 317 319 316 315 316 317 318 318 317 317 317 317 319 318 316 314 314 314 313 313 314 313 315 318 317 317 321 328 332
314 315 314 313 313 312 314 317 317 316 317 316 316 317 316 317 318 318 317 318 318 318 319 319 319 320 320 320 321 321 322 322 322 321 321 320 319 317 317 318 317 317 318 320 323 322 319 318 319 318 318 319 319 319 318 316 314 313 313 316 317 316 315 316 316 316 317 317 316 317 317 318 317 317 315 313 314 313 313 312 312 314 315 317 318 318 319 322
312 314 313 312 312 312 315 318 317 317 317 315 315 316 315 316 317 316 316 317 319 319 318 318 318 319 319 319 320 320 321 321 320 321 321 321 321 319 317 317 317 317 320 323 324 322 320 319 320 320 319 320 321 321 320 317 314 314 315 317 315 314 315 316 315 315 316 316 315 317 317 317 317 316 314 313 313 312 312 312 312 313 315 316 316 316 314 314
310 312 313 312 311 311 315 316 315 316 316 315 316 315 314 315 315 315 315 315 316 319 319 318 318 318 319 319 319 319 319 319 319 319 321 321 322 321 319 319 319 318 319 320 321 321 319 320 321 320 320 321 320 320 320 319 318 316 317 319 317 316 316 315 315 315 315 315 315 316 316 315 314 314 313 313 313 312 312 312 311 313 315 315 314 315 315 314
308 309 310 312 311 312 313 314 314 316 315 315 316 315 314 315 314 314 314 314 314 315 316 316 316 316 317 317 318 317 317 317 317 317 318 320 321 320 320 321 321 320 321 321 320 318 316 318 320 319 320 320 319 319 320 320 320 318 317 318 317 317 316 314 315 315 314 315 315 315 315 315 314 314 313 312 312 312 312 312 312 312 313 313 313 313 313 314
306 306 309 312 313 313 313 314 314 315 314 314 314 314 314 314 314 313 313 314 315 314 314 314 314 315 316 316 316 316 316 316 316 315 316 317 317 316 317 318 319 319 321 320 319 316 314 316 318 318 318 318 318 318 318 318 318 317 317 317 316 316 316 316 316 315 314 316 316 315 315 315 314 313 313 312 312 312 312 311 312 311 312 312 312 312 312 312
303 304 306 309 310 311 314 314 313 314 314 314 313 312 313 313 313 313 312 313 314 313 313 314 314 314 314 314 314 315 314 315 315 315 315 314 312 311 312 313 314 317 317 316 317 317 316 316 317 317 317 317 317 317 317 317 317 316 316 316 316 316 316 317 317 315 316 317 316 315 315 315 314 312 312 312 312 312 312 311 311 311 311 312 311 311 311 311
301 302 303 305 305 307 309 308 309 311 312 312 313 312 312 312 311 312 312 313 313 313 313 314 313 311 309 309 310 311 312 313 313 312 311 308 306 307 309 310 312 313 311 311 313 315 315 316 317 316 316 316 316 316 316 316 316 316 316 316 315 316 316 316 316 315 315 316 315 315 315 315 314 312 312 312 311 312 311 311 311 312 312 312 312 311 310 310
299 301 302 302 302 303 304 304 305 307 308 309 311 312 311 312 312 311 312 313 313 312 312 312 308 306 305 306 306 307 308 308 307 306 306 304 304 305 307 308 310 309 307 308 311 313 314 316 316 317 317 316 316 315 315 316 315 315 316 315 315 315 315 315 315 315 315 315 315 315 315 315 313 313 313 312 312 312 312 312 312 312 311 311 310 308 307 306
297 298 299 300 301 303 305 305 304 304 306 307 309 310 311 311 310 309 308 310 311 310 308 305 303 303 304 304 304 305 305 303 302 302 303 302 303 304 304 305 307 307 306 307 309 310 312 314 314 316 318 318 317 316 315 314 314 314 315 314 315 315 314 314 314 314 315 315 315 315 315 315 313 312 313 313 312 312 312 312 311 310 308 306 304 303 302 302
295 296 298 299 299 300 302 303 304 304 305 305 305 306 307 306 305 305 306 307 308 305 301 300 301 302 303 303 303 302 301 300 300 300 301 301 302 303 303 304 305 306 307 308 308 309 310 311 313 314 315 316 316 316 315 315 316 316 316 315 314 313 314 314 313 314 314 315 315 315 314 312 309 308 308 308 308 309 310 308 306 303 301 300 300 301 300 300
Wind_Speed
15 15 15 15 15 15 14 14 13 13 12 12 11 11 11 11 11 11 11 12 12 13 12 13 14 15 14 12 11 11 10 9 10 8 9 12 12 8 6 5 5 7 8 6 8 8 5 3 6 5 2 1 1 1 1 2 2 3 3 2 2 4 4 5 7 5 3 3 5 4 4 7 6 5 1 2 2 3 3 4 5 5 3 0 2 1 9 24
16 16 16 16 16 16 16 15 15 14 13 13 12 12 12 11 11 11 11 12 12 13 13 13 14 16 14 12 11 11 10 9 9 10 13 14 13 12 9 7 6 7 9 8 10 10 6 2 5 5 3 0 1 0 1 1 2 3 4 2 4 6 5 5 6 5 3 4 6 5 4 7 7 3 1 3 6 4 5 7 4 7 8 2 2 8 18 27
17 17 17 17 17 17 17 16 16 16 15 14 13 13 13 12 12 11 11 11 12 13 13 13 14 16 14 12 11 11 9 7 5 7 7 6 7 12 12 10 9 9 9 9 9 10 7 4 7 7 3 1 2 1 1 1 2 2 3 2 6 7 6 5 6 7 6 5 4 5 3 5 7 3 2 4 7 7 8 8 4 7 13 8 4 9 18 23
17 17 18 18 17 17 17 18 18 17 17 16 15 14 13 13 12 11 11 11 11 12 13 13 14 15 14 11 9 10 9 5 3 3 2 6 3 4 11 13 11 10 10 9 8 8 7 4 6 6 3 2 3 2 2 3 3 2 4 6 7 5 4 9 9 8 7 4 4 3 1 3 6 3 3 3 5 10 10 9 10 12 14 10 7 9 16 18
17 17 18 18 18 18 18 18 18 18 18 18 17 16 15 14 13 12 11 11 11 11 12 13 13 15 14 10 8 9 6 4 2 4 2 4 5 2 8 12 12 11 9 10 9 8 7 5 5 3 3 2 2 2 3 6 3 1 5 8 7 4 4 9 7 7 6 3 3 2 2 5 3 2 4 6 6 14 9 7 12 13 13 10 10 12 13 14
18 18 18 17 17 17 18 18 18 19 19 19 19 18 17 16 15 14 12 11 11 11 12 12 13 14 12 8 6 5 2 1 5 4 4 5 5 3 6 11 12 11 11 12 10 7 6 4 4 2 2 2 3 4 5 4 4 3 6 6 7 6 6 8 4 4 4 3 5 4 4 2 1 5 5 8 14 19 10 6 11 13 14 10 11 12 13 14
18 18 18 18 17 17 17 18 18 19 19 19 19 19 19 18 17 16 14 13 12 11 12 12 12 13 11 6 4 3 3 5 10 8 9 7 4 4 6 11 12 11 12 12 10 6 5 5 3 4 3 1 4 6 5 2 4 6 6 5 7 8 9 10 6 4 3 6 8 2 2 3 6 7 2 7 18 22 11 4 8 9 9 7 10 12 15 16
17 18 19 18 18 17 17 18 18 18 18 18 19 19 19 19 18 17 16 15 13 12 12 11 11 12 10 4 0 3 1 8 12 10 9 7 5 6 8 11 12 12 13 14 12 7 5 5 5 4 2 4 4 4 4 1 2 7 8 6 5 5 8 9 6 7 6 7 5 2 6 9 10 4 3 12 22 20 9 6 8 5 4 6 10 13 14 15
16 18 19 19 19 19 18 18 18 17 17 17 17 18 18 18 17 17 16 16 15 13 12 12 11 10 7 1 4 3 5 7 9 8 7 7 7 8 10 12 13 14 13 14 13 9 6 5 6 5 4 4 4 4 3 2 4 7 7 5 4 6 8 7 7 8 7 5 3 4 13 12 7 3 8 19 24 16 6 9 10 7 6 8 10 12 14 15
16 19 19 18 20 20 19 19 17 17 16 16 16 16 16 16 15 15 14 15 15 14 13 11 10 8 4 1 5 1 7 5 6 7 7 7 9 11 13 14 14 16 13 10 11 11 8 7 6 4 4 2 3 4 3 5 5 4 5 6 7 8 9 6 7 9 4 4 6 8 16 12 3 2 9 19 15 6 5 9 8 8 10 11 10 11 12 14
16 19 19 19 22 22 19 18 16 16 16 15 15 15 14 14 13 13 13 14 14 13 12 11 9 7 3 4 4 5 6 5 6 7 7 10 12 13 15 15 15 17 15 9 11 14 11 9 6 5 1 2 2 3 3 5 2 1 2 7 10 6 9 10 9 8 2 4 9 10 13 9 1 4 13 20 9 3 4 8 7 8 11 11 11 11 9 11
16 18 19 21 23 23 19 17 16 16 16 15 15 14 13 12 12 12 12 13 13 11 11 11 9 5 3 2 6 11 10 8 9 9 10 12 14 14 14 15 15 16 16 10 10 13 11 8 7 5 4 2 1 2 3 4 0 1 2 6 14 7 10 17 10 6 5 4 7 8 7 7 4 11 18 21 9 1 5 9 9 9 10 11 10 9 8 11
17 18 20 22 23 23 19 17 17 17 16 16 15 14 13 12 12 12 12 13 13 11 10 9 8 5 4 1 8 13 15 15 14 13 14 14 14 14 14 16 15 14 14 12 8 8 7 7 9 7 4 3 3 2 1 1 1 3 2 1 10 8 10 15 2 3 5 4 7 8 4 9 9 16 19 17 8 3 7 12 13 11 9 10 9 8 10 12
17 19 20 20 22 22 18 18 19 18 18 18 16 15 14 13 12 12 13 13 12 10 8 6 3 6 5 5 8 8 13 15 15 17 16 16 15 13 15 16 15 14 13 11 8 5 3 3 5 3 1 3 4 4 3 4 2 3 1 0 3 3 10 11 4 5 3 4 8 8 4 10 14 15 15 12 6 5 9 14 14 13 10 9 9 9 11 12
17 19 19 20 21 19 17 18 19 19 20 19 18 17 15 13 12 12 13 14 12 8 6 2 6 7 2 7 9 7 9 11 15 20 19 18 16 11 12 15 13 11 9 7 5 4 4 3 3 2 2 2 1 3 4 4 3 1 2 4 2 4 9 13 4 6 7 4 5 7 4 9 16 17 11 6 6 8 10 14 13 13 13 11 10 9 11 13
16 16 17 18 18 17 17 18 20 21 21 21 20 18 15 14 13 13 13 11 9 6 4 4 9 8 1 4 4 5 8 10 14 17 17 19 17 11 9 11 9 6 5 4 3 3 4 4 1 2 1 3 1 2 3 4 5 2 4 6 5 5 4 9 8 5 8 3 2 7 6 6 12 16 9 4 7 9 9 13 13 14 14 12 10 9 11 12
14 14 16 17 17 17 18 20 21 21 22 22 21 19 16 14 11 9 7 3 1 5 7 3 7 5 2 4 3 5 7 11 13 12 14 18 17 12 7 5 4 5 4 2 3 4 2 2 1 1 1 2 2 5 2 4 7 4 3 4 6 6 4 4 8 6 4 5 6 9 9 11 14 15 10 4 7 8 8 12 13 13 12 10 9 11 12 11
12 13 14 15 16 17 19 20 19 20 23 23 20 19 14 7 3 2 4 7 7 8 5 1 3 3 5 5 4 5 4 7 9 9 13 15 14 12 8 5 5 6 5 2 1 2 1 1 2 1 2 3 2 5 4 9 10 7 4 4 4 5 6 6 8 4 0 5 8 8 10 15 17 16 16 11 7 8 11 12 12 12 11 11 10 12 12 12
11 12 13 14 15 17 20 19 18 22 25 23 20 14 5 4 4 6 7 7 7 5 2 3 4 3 4 5 6 5 3 5 6 7 11 11 10 10 7 4 5 7 5 1 2 3 3 2 4 2 5 8 7 7 12 15 12 9 6 5 4 6 7 8 10 7 4 8 9 10 13 16 17 17 18 18 12 11 13 12 11 12 12 12 12 13 14 15
10 11 12 13 14 17 20 19 18 24 26 24 20 9 3 5 3 3 4 0 4 4 3 5 8 5 4 5 5 5 4 6 6 6 11 13 11 9 4 2 5 3 3 5 4 3 4 4 4 7 10 13 12 11 16 16 10 8 6 6 7 8 9 9 12 10 5 6 10 12 16 18 17 18 17 17 14 13 14 13 14 14 14 14 14 16 17 18
10 10 10 12 13 15 20 18 17 23 23 20 16 6 3 1 1 3 4 5 10 11 8 10 12 10 10 9 8 9 4 3 5 5 12 14 13 10 3 2 4 2 4 6 3 0 3 6 9 13 15 14 11 10 12 11 9 10 8 8 9 8 12 13 12 12 5 5 10 11 16 19 16 16 15 14 15 16 17 16 18 18 16 14 15 19 19 17
9 9 10 11 11 13 18 17 15 20 20 16 15 8 3 1 2 1 1 4 10 10 10 13 12 11 16 18 14 8 2 3 6 5 11 12 9 7 4 5 6 4 4 4 1 1 3 7 12 15 14 9 5 4 7 9 9 9 6 7 8 6 11 12 10 13 7 4 8 10 14 17 15 15 15 14 16 18 18 18 19 18 15 14 15 18 19 17
9 9 9 11 11 12 16 15 12 17 18 14 14 7 1 2 3 2 2 1 8 7 7 9 8 8 13 18 15 9 6 8 8 6 13 13 6 5 4 6 7 3 5 7 7 6 5 7 13 14 9 6 6 5 5 5 5 7 6 6 8 7 8 9 7 8 5 4 7 9 12 14 12 13 11 13 18 18 17 18 17 16 14 17 18 17 17 19
10 10 9 11 12 11 14 14 9 14 14 8 11 7 4 4 1 2 2 1 5 6 8 7 5 6 8 9 8 11 8 6 5 5 13 15 5 2 4 6 6 3 5 10 12 12 11 7 8 10 8 9 11 9 6 4 7 9 8 7 11 12 12 12 7 6 6 6 6 8 13 12 10 13 12 11 15 15 15 16 17 16 16 17 18 17 18 20
12 11 10 11 11 10 14 12 7 14 10 2 8 11 7 4 1 1 3 2 4 6 6 4 3 4 6 3 7 10 4 4 5 3 12 16 8 4 3 4 4 5 8 10 10 12 12 6 5 6 8 11 11 9 7 7 10 10 8 12 18 16 14 14 11 8 7 7 4 2 10 10 6 10 11 7 8 11 11 13 17 19 18 16 15 18 19 19
14 13 11 11 11 11 11 5 7 14 7 1 9 12 7 3 1 1 2 2 5 4 2 2 2 2 3 2 4 6 3 4 3 3 7 11 8 4 2 2 2 5 8 6 5 5 6 7 8 9 9 11 10 7 7 10 10 11 7 13 17 14 11 11 9 5 3 6 4 4 3 11 5 5 8 7 8 12 12 12 17 18 16 14 14 17 16 15
13 14 12 11 11 9 6 3 8 11 3 3 11 11 6 4 2 2 1 3 6 2 3 1 1 1 1 1 1 5 3 5 2 4 2 3 3 2 3 4 2 3 5 3 4 4 4 6 9 11 10 8 7 7 9 12 8 8 4 10 11 9 9 7 5 5 4 4 4 5 5 9 13 6 8 12 12 13 14 15 17 16 16 16 16 16 15 15
12 13 13 12 11 8 5 6 9 6 2 6 11 8 4 3 2 1 3 4 5 2 3 1 1 1 1 3 4 4 2 4 3 2 3 2 1 2 3 6 6 4 3 5 6 4 4 6 9 9 7 6 7 10 10 12 9 7 4 7 6 6 6 4 5 5 2 4 5 5 7 4 14 6 7 10 10 11 15 17 17 17 17 17 16 15 15 17
12 12 13 12 10 8 7 8 8 5 6 8 9 7 3 2 2 3 3 4 3 2 1 1 1 2 4 3 3 3 2 4 2 3 4 2 1 3 3 6 5 5 4 5 9 6 1 3 6 8 6 7 8 8 9 13 10 4 5 3 3 2 1 3 2 1 2 6 7 5 7 4 13 7 4 3 5 9 13 14 15 16 15 13 13 14 15 16
12 12 12 10 8 9 8 8 10 7 6 7 7 7 4 1 0 3 2 6 1 2 1 1 2 2 4 4 3 4 2 2 1 2 4 1 3 5 1 3 3 2 4 3 7 9 4 0 2 4 5 6 5 3 5 10 7 1 3 2 5 4 4 4 1 3 2 9 6 9 11 7 8 5 3 4 5 6 8 8 11 13 13 13 12 13 14 13
12 12 13 12 12 12 8 6 8 7 3 4 6 6 3 2 3 3 7 4 1 2 1 1 1 2 4 3 2 3 1 2 1 1 0 0 3 4 0 1 2 2 3 5 7 9 6 2 2 3 3 4 4 2 1 0 1 2 2 0 3 5 4 5 4 3 2 10 6 11 13 10 9 6 1 5 6 6 7 8 11 13 13 13 12 13 12 10
12 12 14 15 15 15 12 7 5 7 5 1 4 3 1 1 1 6 6 4 2 2 1 1 0 2 1 1 2 3 2 2 1 4 3 2 2 2 3 4 4 1 4 4 4 6 5 7 7 3 1 5 5 4 3 5 1 4 4 3 0 5 4 3 3 1 5 9 6 9 8 7 11 7 4 9 12 10 9 9 12 13 13 13 12 11 9 7
13 12 14 17 17 17 18 13 7 9 8 2 3 3 4 2 5 6 3 1 3 2 3 2 1 3 4 1 3 3 2 2 2 2 2 3 3 3 5 5 5 2 4 4 2 4 4 7 4 3 2 5 8 5 3 2 4 7 5 5 5 3 3 4 4 2 6 9 6 5 6 4 7 4 8 13 13 11 7 8 12 12 12 13 11 9 8 6
12 13 14 17 17 17 19 16 11 12 9 4 3 3 3 5 5 0 2 6 4 2 3 2 1 2 4 3 5 3 2 4 3 3 1 2 1 3 4 6 5 3 2 2 2 1 4 9 3 7 3 5 10 11 11 5 4 6 5 5 7 6 5 5 4 6 7 6 5 2 4 5 3 2 9 11 9 9 7 8 9 9 11 11 10 11 10 7
10 12 13 15 17 17 18 17 14 14 11 6 4 3 4 7 4 0 3 5 2 3 3 2 1 1 2 3 4 2 3 3 2 4 1 2 2 3 3 4 7 6 2 2 3 2 4 9 4 4 3 7 10 11 10 3 0 4 4 4 7 7 5 4 7 8 6 4 4 3 4 6 4 4 6 4 6 8 8 7 6 8 10 8 8 10 9 7
7 9 10 13 17 17 19 19 17 17 13 7 3 3 6 6 3 3 3 2 0 2 5 5 1 1 3 2 2 1 1 2 1 2 1 2 3 4 4 4 7 10 7 5 3 2 5 7 4 2 2 7 9 6 6 4 2 2 3 4 5 3 5 5 8 7 5 5 6 6 8 6 4 6 5 4 7 6 6 7 6 8 10 7 8 8 7 7
5 6 7 11 14 15 18 20 20 19 12 6 4 6 5 5 4 4 3 1 2 2 3 3 1 1 2 2 2 3 1 1 3 2 1 2 2 3 5 3 4 11 12 7 3 4 6 8 8 9 8 6 2 3 3 4 5 5 3 6 3 2 2 3 3 3 5 9 7 8 14 9 2 6 7 7 8 7 8 8 7 8 8 7 7 7 7 7
5 4 5 10 14 13 15 21 22 18 7 3 8 9 6 4 4 4 3 3 3 1 1 4 3 1 3 3 4 3 1 2 1 2 1 1 3 5 6 4 2 6 8 5 3 3 2 5 9 8 7 5 3 2 4 5 3 5 4 3 3 2 3 2 3 3 7 10 6 8 16 12 5 6 6 4 4 5 7 7 8 9 10 9 8 8 8 7
5 3 3 9 15 15 18 23 21 11 3 4 8 9 5 4 4 3 4 3 2 2 3 5 4 3 4 5 4 2 3 4 2 2 2 3 5 5 5 3 1 2 4 5 3 3 1 3 7 5 3 3 3 1 4 4 3 1 1 1 1 3 4 3 3 3 5 10 7 7 10 8 5 6 6 8 8 4 4 8 7 7 7 8 7 6 7 6
3 2 3 5 12 17 22 21 12 4 4 5 7 6 3 2 3 3 4 4 3 2 4 5 4 5 5 5 5 3 4 5 5 4 4 4 5 4 4 4 2 4 5 3 2 3 1 3 5 4 3 2 2 4 5 4 2 1 2 4 3 2 2 2 3 2 3 7 7 7 8 6 5 5 5 7 7 4 4 7 6 7 5 6 7 5 6 5
2 2 3 5 13 21 21 12 4 3 4 4 5 5 3 2 3 3 5 6 6 3 3 4 5 6 5 6 6 4 3 4 6 6 5 5 6 4 6 6 5 4 4 2 2 3 1 2 3 4 5 6 7 6 6 6 5 4 5 6 6 6 5 5 6 5 3 4 5 6 7 5 4 5 5 7 7 7 9 8 8 9 8 7 7 6 7 6
4 4 3 8 21 27 17 4 3 3 3 4 4 3 2 2 3 4 4 6 6 4 2 4 6 6 5 5 5 4 4 4 5 6 5 7 11 9 7 7 8 6 6 5 5 5 4 3 4 6 7 8 11 10 8 8 7 6 5 5 5 5 5 6 9 6 4 4 3 5 7 4 3 10 13 13 12 10 10 12 11 9 9 8 7 8 7 7
4 4 2 11 27 25 9 4 5 4 4 3 2 2 2 2 3 4 4 4 4 4 3 4 5 6 6 6 7 6 5 5 7 8 7 7 10 11 12 12 11 10 7 5 4 4 4 3 5 7 6 7 11 13 13 9 6 6 6 5 6 6 6 8 6 4 5 6 5 8 11 7 5 13 17 16 15 12 10 13 11 9 8 8 8 9 8 8
2 2 1 14 29 20 4 5 6 6 6 3 3 4 3 2 4 7 6 4 4 4 5 5 5 6 7 7 8 8 7 6 8 9 9 6 7 11 16 17 14 9 5 4 4 4 5 4 5 7 6 5 6 7 10 8 5 5 6 6 8 11 12 10 5 3 6 10 12 13 12 9 8 12 15 17 20 19 18 17 13 9 8 8 8 9 9 9
2 2 1 9 21 14 4 6 6 5 6 7 8 7 6 4 5 8 9 6 5 5 3 3 3 4 6 7 8 8 8 7 7 6 5 4 4 6 10 13 12 8 7 8 6 2 5 5 5 6 7 8 8 7 7 6 4 3 4 5 7 10 11 10 7 6 9 12 15 14 11 10 10 11 15 18 23 24 24 21 14 9 9 9 8 8 9 10
1 3 2 3 9 7 4 5 6 5 6 7 7 7 10 10 5 5 7 7 8 7 4 5 5 4 4 6 8 9 9 9 8 5 4 5 4 3 4 7 9 9 11 12 5 4 1 4 6 10 12 12 13 12 7 4 4 5 7 10 11 8 8 7 6 9 11 11 13 13 13 15 13 12 15 19 21 23 24 22 17 11 10 11 11 10 9 8
2 3 3 3 3 5 6 6 6 6 6 7 5 4 10 12 7 5 6 6 7 8 6 6 8 9 9 9 9 8 9 10 9 8 8 8 6 6 8 8 8 10 12 12 6 4 3 6 9 15 18 17 18 19 16 13 13 15 16 18 17 14 12 11 12 13 12 11 13 13 14 17 14 12 17 21 22 22 22 22 19 16 15 14 14 14 11 10
2 1 2 2 1 4 6 6 7 7 8 9 6 5 9 10 7 5 4 4 5 5 4 4 9 13 12 10 8 7 8 9 8 8 6 4 4 6 8 8 8 9 10 8 6 4 5 9 12 16 18 19 19 21 21 19 18 18 19 20 20 19 19 19 20 21 17 16 17 15 17 20 16 14 19 22 22 22 21 20 20 20 19 17 17 17 15 16
1 1 3 2 0 3 3 1 2 5 8 8 5 7 11 12 11 8 4 2 3 4 6 6 6 5 4 3 2 3 6 6 5 4 1 2 4 3 4 7 6 5 7 8 7 4 3 6 11 15 17 17 18 20 21 21 21 20 20 21 21 22 24 24 24 24 24 24 24 22 24 25 19 18 20 21 20 20 19 20 21 22 23 22 22 19 15 15
1 2 3 2 1 3 1 1 1 2 4 5 5 7 8 11 12 9 4 4 4 2 4 4 1 3 2 0 2 4 4 1 2 3 1 3 4 3 1 4 5 7 8 8 5 3 2 4 8 12 12 13 16 18 19 19 20 21 21 21 22 24 25 25 23 22 22 24 26 27 27 23 18 20 23 23 22 21 21 23 24 23 22 20 17 15 15 16
2 4 3 3 3 2 0 1 1 1 3 4 4 4 5 6 6 3 2 4 5 1 2 2 4 3 2 3 4 4 1 1 3 6 4 4 5 4 3 4 6 9 9 7 5 4 4 4 6 9 9 8 11 15 18 18 19 21 22 23 25 25 23 22 21 20 21 23 25 24 21 16 15 18 21 21 20 20 22 22 18 15 14 15 16 16 16 16
3 5 3 1 3 3 2 2 1 3 5 3 1 2 3 3 2 3 3 3 2 4 6 5 4 4 3 5 6 3 1 3 7 8 6 7 9 9 9 9 10 9 7 7 6 4 5 5 5 7 8 7 9 13 15 15 14 14 17 22 26 26 24 22 21 22 22 20 18 16 12 9 11 12 13 14 15 15 14 10 9 12 15 16 14 13 14 14
Wind_Direction
355 355 355 356 355 353 352 351 351 351 352 352 353 353 352 352 350 351 349 348 347 345 349 350 349 349 344 335 331 330 322 303 286 261 240 262 264 244 238 233 212 199 201 196 182 176 156 172 201 180 138 72 186 226 209 158 101 65 100 140 229 205 210 196 197 205 171 267 264 262 223 192 251 274 239 333 279 246 258 264 265 275 276 172 298 272 154 160
351 351 351 352 351 350 348 346 345 344 345 345 346 346 344 345 343 344 343 342 342 340 342 344 346 345 343 338 329 332 326 306 288 263 261 277 266 243 230 222 216 202 196 195 198 183 153 189 192 142 96 120 269 266 185 224 135 127 133 172 228 205 218 205 199 210 181 251 254 255 237 196 226 239 104 261 263 276 258 263 277 274 270 281 76 136 154 160
348 348 348 348 348 348 346 344 343 340 339 339 339 340 339 338 338 339 338 337 337 336 335 338 342 342 344 337 331 337 326 315 296 266 288 323 266 242 230 223 218 210 211 211 213 195 172 180 170 140 94 240 254 132 122 274 204 175 138 202 242 216 235 248 225 232 234 241 244 259 241 198 234 230 129 231 270 275 239 240 224 240 251 237 161 147 160 164
346 346 345 345 345 345 344 342 341 338 336 335 334 334 333 332 332 333 333 333 331 331 330 333 337 339 340 335 334 328 322 339 285 243 22 29 16 244 222 220 217 216 224 218 209 195 183 165 157 142 107 242 288 72 167 232 207 180 163 207 239 200 233 254 236 239 240 220 207 219 165 236 249 203 182 200 287 275 240 224 215 222 240 221 173 173 173 173
343 343 343 343 342 343 343 341 339 337 334 332 331 330 329 328 327 327 327 326 325 325 325 328 331 334 335 331 335 325 340 24 254 207 63 14 13 333 210 212 214 213 213 208 200 185 185 161 128 108 105 213 275 69 225 227 162 165 216 222 237 183 227 255 234 234 225 201 222 202 223 245 233 184 207 185 233 264 248 207 213 220 235 212 177 183 180 183
340 340 339 339 340 341 340 339 337 336 333 331 330 328 327 325 325 324 322 321 319 319 319 322 326 330 332 326 329 335 33 323 257 236 283 323 340 299 200 202 208 206 203 204 201 184 176 132 109 148 145 212 208 194 238 232 159 226 253 238 242 214 233 259 241 235 201 202 243 223 236 232 279 273 226 192 228 254 252 179 200 221 233 209 168 172 183 194
339 337 335 335 337 338 338 337 336 336 333 330 328 326 326 325 326 324 321 318 313 312 314 316 320 325 330 324 316 15 87 251 271 276 280 290 292 254 196 200 202 205 204 201 201 184 149 118 152 178 146 267 227 209 241 251 171 220 256 254 248 225 231 253 260 273 243 232 243 251 295 234 242 266 239 221 243 253 253 187 201 225 231 190 161 178 192 199
338 335 333 334 335 337 337 334 334 334 330 327 325 324 325 325 326 323 320 316 310 309 308 309 315 319 322 324 25 13 357 254 275 284 275 270 248 217 198 199 200 206 203 207 210 186 153 147 186 175 145 251 209 199 241 319 193 214 238 252 254 235 239 256 264 266 257 247 244 282 278 238 224 256 307 257 259 264 247 212 226 219 206 176 183 198 198 205
336 335 334 334 336 338 337 335 334 332 326 324 323 322 324 323 322 320 317 313 309 306 304 305 310 317 312 339 86 353 268 251 273 275 266 253 229 212 204 202 201 204 203 215 213 186 176 185 209 198 193 228 190 204 222 230 246 216 222 252 267 273 274 274 268 255 248 245 194 229 265 252 221 265 285 257 260 272 227 210 230 208 216 211 205 208 202 210
334 334 335 335 340 341 339 337 335 331 326 324 323 323 322 320 317 315 312 307 303 301 301 298 302 317 299 155 97 262 259 268 277 259 251 237 224 215 210 208 205 206 204 210 203 187 186 195 196 167 180 212 192 217 192 190 229 208 221 270 259 267 280 259 249 259 254 236 189 207 261 266 225 206 265 262 260 261 209 226 233 212 230 229 220 220 209 215
333 331 336 339 341 342 340 339 336 333 331 329 328 326 323 319 316 313 308 300 296 296 295 287 293 298 250 150 144 229 261 280 272 255 243 235 228 222 219 217 212 210 207 201 203 203 207 206 164 110 197 226 203 249 229 204 218 235 276 309 283 284 291 261 245 254 243 245 201 194 258 279 96 196 243 259 262 116 221 253 245 224 239 236 229 229 216 222
335 330 339 343 339 338 340 342 341 338 337 335 330 328 326 320 317 313 306 299 294 294 287 282 287 268 206 152 217 239 258 265 266 262 249 238 229 227 227 224 223 223 219 213 217 215 218 215 165 152 228 196 232 288 243 221 101 291 51 331 293 324 308 276 266 226 179 225 190 157 271 282 206 223 240 251 255 27 289 278 264 240 242 244 237 233 224 229
334 332 340 341 333 332 341 348 344 341 340 335 330 330 326 320 318 311 304 298 295 293 285 284 280 228 175 244 245 245 257 261 262 259 248 238 230 228 225 223 227 233 232 232 234 216 207 207 180 186 215 167 233 259 166 0 34 280 50 357 288 335 303 277 298 146 176 199 174 140 277 272 239 234 242 254 256 281 286 274 269 260 250 249 242 238 235 234
331 333 337 335 328 332 345 347 341 341 338 332 329 329 324 319 313 303 297 292 292 291 285 289 251 181 166 251 264 266 264 258 252 248 242 234 226 226 225 223 226 231 238 244 245 232 208 199 165 165 233 180 239 295 345 354 356 284 324 257 281 308 272 277 79 121 207 212 171 150 235 264 268 254 242 254 238 208 255 262 266 267 262 256 247 243 244 239
328 332 334 332 330 339 349 344 339 339 335 330 328 327 323 318 307 295 290 285 286 281 267 226 163 148 122 273 271 279 263 249 248 247 243 234 222 220 227 222 224 231 235 239 245 249 215 181 126 150 260 282 295 306 329 342 344 349 232 266 269 198 261 292 307 172 213 251 161 159 222 257 270 269 250 233 194 184 234 256 261 265 265 260 254 247 248 249
327 331 336 338 341 350 351 344 341 339 335 331 328 325 321 314 301 290 285 280 283 257 196 176 180 162 115 272 270 276 248 235 251 252 241 233 226 223 222 212 214 212 204 213 201 174 165 154 151 171 202 298 236 135 22 346 313 300 208 241 252 216 257 306 302 234 201 208 180 204 232 254 263 271 266 207 190 195 223 253 259 262 264 261 260 253 250 256
328 336 344 348 353 357 354 347 343 341 338 334 330 324 318 310 299 292 279 255 226 164 147 156 180 164 273 265 273 277 243 233 249 251 232 225 223 220 205 178 173 161 142 121 142 135 123 142 177 184 20 287 174 107 49 275 265 272 200 228 250 235 231 280 297 298 181 173 216 229 233 242 254 266 273 229 184 196 221 248 256 258 264 263 263 261 254 254
333 345 350 352 357 359 356 350 348 348 343 339 336 326 321 319 324 40 131 135 111 124 132 27 134 152 278 253 242 253 236 231 235 232 219 210 209 212 197 155 127 123 104 59 123 121 40 13 117 132 303 267 180 128 198 233 240 243 219 224 254 244 235 246 268 288 205 225 226 232 240 244 255 266 272 264 218 217 238 246 257 260 262 262 260 261 257 253
338 351 352 353 358 357 356 356 356 354 347 346 345 334 345 63 82 89 104 124 115 125 200 238 170 173 257 241 238 243 229 206 201 206 200 187 189 194 178 136 116 113 113 143 244 169 149 68 77 147 230 237 218 182 212 233 239 244 239 219 229 248 243 240 253 249 241 263 242 233 248 248 252 256 262 267 256 247 254 254 258 259 259 259 256 259 260 257
336 346 348 351 354 354 358 359 356 357 354 351 348 344 71 57 33 41 25 299 210 225 241 211 199 211 258 262 241 222 219 199 195 196 183 176 168 164 161 79 82 89 139 159 203 207 158 147 167 200 215 227 225 206 220 240 255 266 264 249 244 255 263 253 261 264 218 246 248 231 248 252 249 251 252 263 267 263 262 259 255 253 253 254 253 255 255 255
328 337 341 343 347 351 356 356 352 356 358 357 2 26 112 42 332 310 320 294 261 252 254 238 219 231 252 249 215 196 200 207 220 205 180 176 156 151 203 135 124 218 188 153 177 202 146 184 209 215 217 226 228 214 225 242 254 258 252 263 264 254 266 261 261 273 229 216 258 242 254 260 251 252 252 256 265 265 262 259 257 253 248 250 252 255 255 254
317 326 330 329 337 346 350 352 351 351 356 12 35 69 126 103 115 231 253 292 283 256 244 249 239 247 252 248 234 204 198 244 246 221 174 172 161 174 210 155 170 209 154 149 240 231 194 215 223 224 224 237 250 206 221 237 238 245 245 262 268 255 273 270 251 262 242 201 263 258 258 264 256 252 249 249 255 257 256 254 255 256 251 250 248 251 256 257
301 310 316 315 324 335 342 347 348 349 357 27 51 74 108 41 105 116 111 261 293 270 237 241 235 237 243 252 246 210 219 234 240 230 174 167 174 188 171 162 185 165 140 184 213 218 226 229 227 228 226 236 255 230 219 258 251 226 227 248 262 253 264 267 244 257 250 206 262 273 269 269 266 261 249 243 248 253 258 258 258 258 249 248 248 249 256 258
285 291 296 301 309 322 337 339 345 355 357 32 48 38 17 12 114 110 63 238 280 277 252 231 215 223 233 252 226 196 218 226 229 238 177 164 153 161 175 173 174 170 190 203 214 232 243 233 217 215 206 212 236 240 219 259 266 229 209 222 250 248 244 254 269 302 295 257 260 287 286 274 248 252 251 239 246 253 259 260 263 261 249 248 253 255 255 255
278 278 282 291 296 312 331 330 345 356 345 9 20 7 7 8 140 106 20 327 283 287 280 242 194 230 234 201 169 176 198 218 218 206 171 169 158 151 195 176 173 205 206 208 225 247 252 227 174 179 197 207 221 234 207 206 258 256 202 211 239 248 250 259 281 314 310 279 267 294 295 285 205 222 249 245 251 256 254 254 258 259 255 251 254 255 252 253
274 274 274 281 285 306 327 323 341 348 339 285 353 352 356 352 280 252 34 14 284 272 289 237 187 215 215 148 154 147 130 252 249 101 157 181 175 147 177 185 216 217 188 196 232 252 246 209 186 191 200 203 208 231 210 191 244 272 214 209 233 246 254 258 270 288 263 267 277 117 278 286 254 212 246 245 242 250 252 250 250 254 257 253 250 253 253 253
273 272 271 274 278 298 320 307 325 342 348 314 339 346 345 338 289 256 27 345 286 217 134 278 341 86 175 51 53 127 175 275 2 65 111 182 199 142 194 204 208 221 165 153 269 247 197 196 206 209 201 194 198 228 215 183 216 268 209 193 215 234 246 231 216 229 230 282 286 152 160 273 280 242 213 227 231 243 251 250 249 252 252 250 249 254 257 255
270 270 269 267 267 275 281 288 312 330 298 320 340 343 346 337 268 143 51 300 275 117 115 275 58 73 3 356 30 92 236 303 52 325 345 46 238 103 209 218 184 213 171 150 242 251 144 191 216 203 196 201 203 221 201 168 207 255 157 154 177 203 222 174 180 224 276 338 287 198 144 254 283 259 186 219 225 230 243 245 248 249 247 249 250 255 258 260
267 268 269 264 260 263 265 273 288 294 295 328 345 330 334 321 274 77 68 262 266 64 51 340 9 340 13 20 10 41 349 357 62 284 341 26 319 73 194 218 170 229 262 180 235 265 133 200 198 167 181 217 219 225 186 170 208 232 126 111 69 93 80 88 188 204 31 307 265 199 150 227 284 285 144 200 221 227 238 240 248 250 252 257 258 260 260 262
265 265 266 259 239 233 238 253 260 267 299 331 338 322 320 298 63 84 236 248 310 356 258 20 327 329 54 70 329 333 347 346 351 333 7 20 342 21 183 208 121 207 280 275 261 257 240 48 137 167 195 204 195 202 180 183 210 128 114 333 13 16 22 48 352 72 30 280 247 175 173 195 275 287 148 183 214 232 240 246 259 259 260 261 258 260 258 261
259 260 258 248 225 216 207 226 246 241 262 328 340 333 331 9 82 154 237 250 29 306 307 14 335 33 64 118 263 297 199 281 289 120 59 109 21 23 93 235 76 54 323 291 278 269 258 238 221 223 182 140 133 191 251 336 196 118 141 30 3 328 2 26 350 57 220 262 226 178 180 186 235 268 255 238 245 235 223 232 255 259 260 259 253 254 257 268
247 251 254 249 234 219 210 212 217 197 195 314 354 348 36 40 197 215 246 335 331 256 107 68 29 76 66 110 256 250 182 260 244 150 174 155 132 183 207 206 167 39 312 252 274 304 276 229 221 237 171 152 159 213 308 356 91 139 129 129 275 302 338 344 303 164 221 256 235 188 178 204 240 257 273 272 274 259 227 217 236 248 257 259 256 258 268 282
242 242 248 250 239 222 219 223 206 182 180 127 24 27 84 164 237 222 211 263 247 217 111 109 106 149 146 99 267 237 171 246 210 155 177 133 152 240 259 234 172 160 271 226 285 321 292 267 207 147 275 189 164 185 243 280 191 172 159 155 170 214 252 247 260 269 253 265 259 185 166 245 278 269 226 237 257 261 239 223 232 241 255 262 268 278 288 295
242 238 242 246 240 229 225 223 205 185 172 119 83 72 120 207 241 235 174 220 245 4 69 95 57 158 155 185 231 192 184 252 169 141 175 104 154 258 259 245 206 187 231 220 283 250 268 289 206 160 236 195 178 206 215 196 179 194 171 150 183 194 191 202 222 248 252 272 292 207 173 219 248 251 226 220 243 266 258 245 242 244 251 255 266 273 282 297
235 230 240 240 231 229 224 216 203 186 167 128 99 124 191 223 244 109 210 232 277 357 336 327 57 185 248 248 248 201 203 247 106 117 162 139 199 229 218 221 205 192 174 215 253 170 230 274 247 177 184 165 185 220 215 161 344 236 136 132 220 208 175 213 239 240 253 303 293 239 218 225 231 271 266 261 281 277 269 271 272 269 267 269 274 275 284 296
226 219 233 225 218 220 215 208 198 182 163 126 105 191 220 232 212 182 211 229 77 15 333 324 44 192 285 298 286 290 204 218 165 125 191 201 218 224 220 228 201 188 183 196 227 222 245 272 277 237 209 187 196 207 190 171 203 221 133 184 232 165 151 228 259 259 266 273 259 249 259 274 301 285 284 339 329 312 314 323 317 290 286 291 288 283 285 276
248 226 221 216 218 216 209 205 192 178 163 135 175 209 222 229 206 194 206 168 151 58 10 306 276 190 263 298 268 264 335 272 210 162 191 234 237 207 211 250 206 192 203 219 241 247 254 271 269 266 269 257 205 139 205 212 158 137 183 220 216 81 141 201 247 266 255 254 253 255 263 271 290 276 297 349 349 333 334 349 351 327 323 323 307 294 277 260
277 243 234 234 232 222 210 203 184 167 152 162 211 220 210 210 215 200 188 165 178 183 190 230 246 217 204 234 261 257 275 289 230 182 201 216 224 205 207 251 232 197 214 232 274 273 265 273 271 278 291 310 25 76 270 277 184 163 205 209 148 183 226 186 188 218 237 248 246 241 258 265 237 244 281 296 285 304 331 14 18 354 356 354 331 310 298 293
280 255 261 239 229 223 208 193 174 156 156 192 217 227 206 204 225 199 176 154 154 183 213 222 231 245 222 213 225 238 223 218 203 243 240 222 235 222 203 217 240 224 195 160 193 241 224 250 260 278 316 346 12 224 231 264 279 262 259 279 169 192 194 187 199 187 222 248 254 238 247 262 246 220 218 226 219 233 343 17 5 337 351 348 324 301 294 294
259 260 268 216 209 204 189 176 160 156 204 204 219 224 202 226 248 229 190 174 173 197 212 217 221 234 234 222 224 230 223 211 200 217 223 225 253 278 268 243 233 237 214 161 183 220 220 260 259 277 295 304 284 225 199 205 232 215 227 248 252 230 234 262 238 173 202 244 258 253 245 251 259 227 212 233 219 213 336 353 318 295 305 306 298 275 261 259
218 246 239 199 190 178 165 156 159 199 212 234 236 226 232 248 247 249 217 201 213 226 197 197 214 225 229 236 235 218 215 212 197 203 217 223 229 254 266 232 187 199 241 269 247 201 194 272 278 296 282 271 270 241 196 202 223 210 215 235 237 232 245 268 251 217 205 236 246 260 260 255 274 270 267 280 270 276 302 295 276 276 269 271 278 255 242 246
221 231 220 195 180 163 151 163 226 200 217 238 234 224 237 248 239 237 223 208 213 221 221 215 219 222 220 232 235 214 213 217 203 210 222 219 213 218 236 218 199 224 250 245 231 200 172 194 242 258 253 259 277 277 246 228 230 231 227 224 231 226 211 235 247 236 234 266 279 277 264 244 281 283 282 286 283 282 286 276 272 275 268 276 287 268 253 250
216 225 226 188 175 161 153 223 208 212 232 238 267 255 221 241 250 239 227 215 208 209 226 221 215 222 222 225 230 224 221 219 212 218 228 229 218 217 228 236 241 252 250 232 233 217 178 168 225 243 247 252 267 282 279 254 221 240 247 218 218 226 221 231 239 222 237 260 269 271 261 236 243 268 273 281 281 277 272 268 265 264 269 279 280 278 275 262
254 248 235 187 181 174 184 215 203 225 228 231 254 244 245 237 228 241 239 213 192 200 219 217 212 222 221 220 225 222 217 223 228 229 228 224 219 220 228 239 246 247 232 217 227 239 233 200 206 240 255 252 250 270 274 254 213 223 233 211 222 233 238 249 252 216 237 243 240 251 258 243 233 254 268 281 282 278 271 264 254 247 259 266 265 274 280 276
301 251 260 193 191 193 213 212 215 226 219 231 236 231 245 243 224 236 240 234 220 206 217 240 235 234 223 222 237 235 224 232 249 257 243 230 248 241 228 233 240 238 236 233 209 193 246 215 191 229 240 240 243 240 244 245 223 215 215 219 234 232 235 252 263 251 247 241 237 244 258 256 246 252 264 270 272 274 274 270 262 247 245 253 258 263 269 274
249 245 244 199 202 214 235 221 219 217 213 229 233 221 227 237 244 221 212 235 243 223 229 258 260 272 249 227 244 251 243 241 242 253 266 258 271 281 245 243 246 239 247 251 218 127 240 236 212 228 235 240 248 248 246 252 251 254 256 254 254 244 234 249 260 251 256 258 249 246 256 260 254 252 259 261 264 269 272 274 276 270 260 263 265 262 256 253
224 254 216 188 206 225 236 227 216 212 203 206 211 214 224 233 248 233 204 222 232 217 225 243 239 240 238 232 242 249 248 246 239 238 249 252 267 288 285 279 269 258 263 266 237 173 221 252 236 234 238 241 248 254 255 254 254 257 261 263 262 256 247 249 252 251 259 270 260 251 256 262 258 252 257 261 264 267 271 278 282 279 274 271 272 273 269 262
231 269 255 253 209 219 232 231 225 226 219 210 204 221 238 237 229 223 225 240 230 205 208 241 236 233 238 245 248 248 247 248 250 252 251 272 318 319 312 309 295 284 289 283 260 235 244 251 244 243 243 240 243 250 252 252 254 253 254 258 259 257 253 251 253 254 253 255 258 255 256 259 256 248 250 255 261 265 270 277 280 281 280 278 278 279 278 278
272 286 290 332 346 247 266 289 261 250 236 229 217 219 240 249 240 229 225 255 257 225 219 238 245 247 277 293 247 244 252 246 255 276 333 15 333 315 313 311 313 343 348 326 304 292 263 252 250 253 255 248 242 244 245 247 251 250 249 250 250 253 253 251 252 255 254 256 261 262 258 257 256 252 250 252 258 266 272 275 276 278 280 281 285 291 298 304
308 299 309 354 300 264 295 34 314 290 250 241 235 222 229 244 247 243 228 220 235 241 227 237 318 19 356 341 186 237 248 192 202 251 347 359 317 301 280 290 310 337 337 321 305 292 278 275 272 270 267 257 249 247 244 242 245 248 249 248 248 249 250 251 252 254 256 258 260 260 260 259 257 256 256 256 257 262 267 270 273 278 285 298 317 340 355 354
301 318 328 322 282 274 301 242 226 254 249 231 223 222 220 230 243 271 279 233 220 186 78 48 9 353 254 244 263 251 219 116 214 234 246 258 264 268 258 267 295 310 309 299 293 299 296 293 288 279 270 258 251 249 250 250 248 247 247 246 246 245 245 247 247 245 247 252 255 258 260 264 267 266 265 267 269 269 271 276 287 307 333 358 13 19 16 7
324 323 340 330 281 283 302 315 274 219 238 232 210 258 249 249 12 22 310 258 154 108 80 53 353 334 307 287 294 294 186 244 244 241 240 237 238 245 247 246 248 256 272 283 283 276 265 270 283 276 273 278 268 263 266 263 251 244 239 238 239 240 242 244 244 245 246 249 257 262 267 298 327 334 333 326 321 315 313 327 0 11 16 21 19 15 9 3